This is the latest recevied weather packets stored in our database for station/object VE3VGJ. If no packets are shown the sender has not sent any weather packets the latest 10 day(s).
| Time | Temp. | Humidity | Pressure | Rain* | Wind** | Luminosity | Snow |
|---|---|---|---|---|---|---|---|
| 1777740709 | 7.22° C | 55% | 1014.2 hPa | 0 mm | - | 355 W/m² | - |
| 1777740405 | 7.22° C | 58% | 1014.2 hPa | 0 mm | - | 287 W/m² | - |
| 1777740102 | 7.22° C | 57% | 1014.3 hPa | 0 mm | - | 218 W/m² | - |
| 1777739798 | 7.22° C | 60% | 1014.2 hPa | 0 mm | - | 168 W/m² | - |
| 1777739495 | 7.22° C | 64% | 1014.1 hPa | 0 mm | - | 138 W/m² | - |
| 1777739192 | 7.22° C | 64% | 1014.1 hPa | 0 mm | - | 267 W/m² | - |
| 1777738889 | 6.67° C | 66% | 1014.2 hPa | 0 mm | - | 378 W/m² | - |
| 1777738586 | 6.67° C | 64% | 1014.1 hPa | 0 mm | - | 380 W/m² | - |
| 1777738283 | 6.67° C | 66% | 1014.5 hPa | 0 mm | - | 380 W/m² | - |
| 1777737981 | 6.67° C | 69% | 1014.5 hPa | 0 mm | - | 330 W/m² | - |
| 1777737680 | 6.11° C | 67% | 1014.5 hPa | 0 mm | - | 406 W/m² | - |
| 1777737378 | 6.11° C | 69% | 1014.5 hPa | 0 mm | - | 430 W/m² | - |
| 1777737074 | 5.56° C | 70% | 1014.6 hPa | 0 mm | - | 328 W/m² | - |
| 1777736770 | 6.11° C | 69% | 1014.3 hPa | 0 mm | - | 269 W/m² | - |
| 1777736142 | 7.22° C | 65% | 1014.4 hPa | 0 mm | - | 238 W/m² | - |
| 1777735839 | 6.67° C | 63% | 1014.5 hPa | 0 mm | - | 460 W/m² | - |
| 1777735537 | 7.22° C | 62% | 1014.4 hPa | 0 mm | - | 521 W/m² | - |
| 1777735234 | 6.67° C | 64% | 1014.3 hPa | 0 mm | - | 489 W/m² | - |
| 1777734931 | 6.67° C | 65% | 1014.4 hPa | 0 mm | - | 376 W/m² | - |
| 1777734628 | 6.67° C | 66% | 1014.4 hPa | 0 mm | - | 295 W/m² | - |
| 1777734326 | 6.11° C | 67% | 1014.2 hPa | 0 mm | - | 360 W/m² | - |
| 1777734021 | 6.11° C | 68% | 1014.3 hPa | 0 mm | - | 228 W/m² | - |
| 1777733718 | 6.11° C | 67% | 1014.4 hPa | 0 mm | - | 162 W/m² | - |
| 1777733415 | 5.56° C | 67% | 1014.2 hPa | 0 mm | - | 208 W/m² | - |
| 1777733111 | 6.11° C | 67% | 1014.5 hPa | 0 mm | - | 268 W/m² | - |
* Rain latest hour (hover to see other rain measurements)
** Current wind speed in m/s (hover to see current wind gust speed)